Powrót do katalogu

FENGYUN 1C DEB

AktywnyLEO
NORAD 32356·DEBRIS·🇨🇳 China

Wystrzelony May 10, 1999 z Taiyuan Satellite Launch Center

Loading…

Następne Przeloty (najbliższe 24 godziny)

TLE

Starzejące sięSource: Space-Track

Epoka: Sep 12, 2026, 20:35 UTC

1 32356U 99025CYZ 26255.85764831  .00002501  00000-0  14898-2 0  9996
2 32356 102.4941 224.8612 0123582  69.1797 292.2543 14.05103440722355

Śledź FENGYUN 1C DEB w czasie rzeczywistym z AllMySat

Download on the App Store